STARLINK-37777, 69349

Orbit data source: Space-Track

STARLINK-37777, 69349 is a payload satellite owned by SpaceX/Seattle (US) in SSO that was launched on Wed, 03 Jun 2026 UTC via an FALCON 9 launch vehicle from the Air Force Western Test Range (AFWTR). Payload-class satellites include a variety of spacecraft equipped with specific instruments for various scientific and technological missions. These include communications satellites like Starlink; space stations such as the ISS; scientific satellites like the Hubble; Earth observation satellites from companies like Planet Labs, Umbra, and HawkEye 360; GPS; miniature CubeSats for education and research; and military/defense satellites.

Loading next visibility...
Identifier
69349, 2026-122W
Orbit
SSO
Country
Flag of USUS
Related business
Manufacturer
SpaceX/Seattle
Mission
Operational spacecraft
Bus & Motor
STARLINK V2MO, Unknown motor
Mass
575 kg wet, ~530 kg dry
Launch date (UTC)
2026-06-03 (2 weeks ago)
Launch vehicle
FALCON 9
Launch site
Air Force Western Test Range (AFWTR)
Object type
Payload
Rocket body
Debris
Shape & HBR
Unknown
Radar Cross Section
RCS unknown

Expand to show TLE details & history
Last TLE update: 10 hours ago

TLE from 10 hours ago
0 STARLINK-37777
1 69349U 26122W   26171.41668980 -.02471445  00000-0 -28173-1 0  9994
2 69349  97.2850 201.0711 0001598  97.7579 104.5858 15.65607310  3876
Epoch: 2026-06-20T10:00Z
TLE epoch observation values (Epoch: 2026-06-20T10:00:01.998Z)
Latitude
-22.41883°
Longitude
-40.57508°
Altitude
380.379 km
Speed
7.68 km/s
True Right ascension
01h 12m 15s
True Declination
-22° 17' 28"
Sunlit
Object was in daylight at epoch
Visualization orbit readout
Latitude
Unknown
Longitude
Unknown
Altitude
Unknown
Speed
Unknown
Apparent Right ascension
Unknown
Apparent Declination
Unknown
Sunlit
N/A
Visualization observer readout
Local Sidereal Time
07:14:25
Azimuth
Unknown
Elevation
Unknown
Doppler factor
Unknown
Orbital elements
Apogee altitude
369.471 km
Perigee altitude
367.315 km
Semi-major axis
6,746.53 km
Eccentricity
0.00016
Inclination
97.285°
RAAN
201.0711°
Arg. of periapsis
97.7579°
True anomaly
104.60352°
Mean anomaly
104.5858°
Eccentric anomaly
104.59466°
Mean motion
3.91672 °/min
Orbital period
91.91 mins
BSTAR
-0.028173
Loading maneuver chart data...
Computing Atmospheric mass density...
Loading historical data...
Loading historical data...
Loading historical data...
Loading historical data...
Loading historical data...
Loading historical data...
Loading historical data...

Documentation

Showing up to 5 results
|